YAMAL 401

Last updated on Thu Nov 21 2024 00:02:42 GMT+0000 (Coordinated Universal Time)

1 40345U 14082A 24325.54387897 -.00000227 00000+0 00000+0 0 9998 2 40345 0.0136 261.8573 0000787 34.9963 48.9627 1.00271112 36163
UTC large
Height (km)
Speed (km/s)
/
Latitude / Longitude
Inclination (degrees)
Orbital Period (minutes)
Azimuth
Elevation
Range (km)
Doppler Factor

Next 0 passes for location: London (51.5072 / 0.1276)

Sorry there are no passes over London.